Regional Weather Roundup
Issued by NWS State College, PA

Home | Current Version | Previous Version | Text Only | Print | Product List | Glossary On
Versions: 1 2 3 4 5 6 7 8 9 10 11 12 13 14 15 16 17 18 19 20 21 22 23 24 25 26 27 28 29 30 31 32 33 34 35 36 37 38 39 40 41 42 43 44 45 46 47 48 49 50
000
ASUS41 KCTP 230710
RWRCTP

REGIONAL WEATHER ROUNDUP
NATIONAL WEATHER SERVICE STATE COLLEGE PA
300 AM EDT WED AUG 23 2017

Note: "fair" indicates few or no clouds below 12,000 feet with no
significant weather and/or obstructions to visibility.

* = STATION THAT DOES NOT REPORT PRECIPITATION /E.G. RAIN...SNOW...ETC/
    THUNDER OR FOG.

PAZ002>004-007>009-013>016-020>023-029>032-230800-
WESTERN PENNSYLVANIA

CITY           SKY/WX    TMP DP  RH WIND       PRES   REMARKS
ERIE           PTCLDY    69  53  56 NW13G21   29.88R
MEADVILLE      MOCLDY    62  58  86 W5        29.91S
FRANKLIN*      MOCLDY    61  57  88 CALM      29.91S
NEW CASTLE     PTSUNNY   64  64 100 CALM      29.91S
BEAVER COUNTY  NOT AVBL
BUTLER*        MOCLDY    64  62  93 CALM      29.92R
PITTSBURGH INT MOCLDY    67  65  93 NW6       29.91R
PITTSBURGH     CLOUDY    66  61  84 NW6       29.90R
INDIANA*       CLOUDY    66  66 100 CALM      29.92S
LATROBE        CLOUDY    66  66 100 SW5       29.91S
WASHINGTON CO* MOCLDY    68  63  83 NW5       29.91S
$$

PAZ004>006-010>012-017>019-024>028-033>037-041-042-045-046-049>053-230800-
CENTRAL PENNSYLVANIA

CITY           SKY/WX    TMP DP  RH WIND       PRES   REMARKS
BRADFORD       CLEAR     56  56 100 CALM      29.90R FOG
DUBOIS         CLOUDY    63  59  87 NW6       29.89R
CLEARFIELD     CLOUDY    66  63  90 NW6       29.89R
JOHNSTOWN      CLOUDY    65  62  90 NW9       29.92R
ALTOONA        CLOUDY    69  65  86 NW6       29.89R
STATE COLLEGE  CLOUDY    68  65  89 CALM      29.86R
WILLIAMSPORT   CLOUDY    71  68  90 W8        29.80R
SELINSGROVE    MOCLDY    71  69  93 NW6       29.81S
FT INDIANTOWN  MOCLDY    71  71 100 CALM      29.79F
CAPITAL CITY   CLOUDY    74  70  87 W3        29.80S
HARRISBURG     CLOUDY    75  72  90 NW5       29.79F
YORK           CLOUDY    73  71  93 W3        29.81F
$$

PAZ038>040-043-044-047-048-054-055-060>062-067>071-230800-
EASTERN PENNSYLVANIA

CITY           SKY/WX    TMP DP  RH WIND       PRES   REMARKS
SCRANTON       CLOUDY    71  68  90 SW6       29.79F THUNDER
MOUNT POCONO   CLOUDY    67  66  97 W12       29.83S
ALLENTOWN      CLOUDY    73  70  90 SW5       29.78F
QUAKERTOWN*    CLOUDY    72  72 100 CALM      29.80F
READING        CLOUDY    73  73 100 CALM      29.78F FOG
LANCASTER      MOCLDY    74  73  97 S3        29.80F
COATESVILLE    LGT RAIN  73  72  94 CALM      29.83F
POTTSTOWN      CLOUDY    72  72 100 VRB3      29.81F
BLUE BELL      CLOUDY    72  72 100 CALM      29.81F
DOYLESTOWN     CLOUDY    72  72 100 SW3       29.79S
WILLOW GROVE   NOT AVBL
NORTH PHILA    CLOUDY    76  72  87 W10       29.80F
PHILADELPHIA   CLOUDY    76  73  91 SW12      29.79F
$$




USA.gov is the U.S. government's official web portal to all federal, state and local government web resources and services.